Weather History for Cheboygan, MI

Change the Weather History Date:

Saturday, July 6, 2013

  Actual Average (KPLN) Record (KPLN)
Temperature  
Mean Temperature 75 °F -  
Max Temperature 88 °F 78 °F 95 °F (1988)
Min Temperature 62 °F 52 °F 28 °F (1965)
Cooling Degree Days 10    
Growing Degree Days 25 (Base 50)    
Moisture  
Dew Point 58 °F    
Average Humidity 57    
Maximum Humidity 88    
Minimum Humidity 32    
Precipitation  
Precipitation 0.00 in - - ()
Sea Level Pressure  
Sea Level Pressure 30.01 in    
Wind  
Wind Speed 6 mph (SW)    
Max Wind Speed 15 mph    
Max Gust Speed 22 mph    
Visibility 10 miles    
Events      
Averages and records for this station are not official NWS values.
T = Trace of Precipitation, MM = Missing Value Source: NWS Daily Summary

Daily Weather History Graph

Daily Weather History Graph

Search for Another Location

Airport:

Trip Planner

Search our weather history database for the weather conditions in past years. The results will help you decide how hot, cold, wet, or windy it might be!

Date:

Astronomy

Jul. 06, 2013 Rise Set
Actual Time 5:56 AM EDT 9:29 PM EDT
Civil Twilight 5:18 AM EDT 10:06 PM EDT
Nautical Twilight 4:28 AM EDT 10:56 PM EDT
Astronomical Twilight 3:22 AM EDT 12:01 AM EDT
Moon 4:44 AM EDT (7/6) 8:07 PM EDT (7/6)
Length of Visible Light 16h 48m
Length of Day
15h 33m
Waning Crescent, 2% of the Moon is Illuminated
Jul 6
Waning Crescent
Jul 8
New
Jul 15
First Quarter
Jul 22
Full
Jul 29
Last Quarter

Hourly Weather History & Observations

Time (EDT) Temp. Heat Index Dew Point Humidity Pressure Visibility Wind Dir Wind Speed Gust Speed Precip Events Conditions
12:15 AM 66.7 °F - 58.5 °F 75% 30.03 in 10.0 mi South 3.5 mph - N/A   Clear
12:36 AM 64.0 °F - 58.1 °F 81% 30.03 in 10.0 mi SW 3.5 mph - N/A   Clear
12:55 AM 65.1 °F - 59.9 °F 83% 30.02 in 10.0 mi South 3.5 mph - N/A   Clear
1:15 AM 65.8 °F - 60.4 °F 83% 30.02 in 10.0 mi South 3.5 mph - N/A   Clear
1:35 AM 66.2 °F - 60.3 °F 81% 30.02 in 10.0 mi South 4.6 mph - N/A   Clear
1:55 AM 66.2 °F - 59.7 °F 80% 30.02 in 10.0 mi SSW 3.5 mph - N/A   Clear
2:16 AM 65.3 °F - 59.5 °F 82% 30.02 in 10.0 mi South 3.5 mph - N/A   Clear
2:35 AM 65.3 °F - 59.4 °F 81% 30.03 in 10.0 mi South 3.5 mph - N/A   Clear
2:55 AM 64.4 °F - 59.0 °F 83% 30.03 in 10.0 mi Calm Calm - N/A   Clear
3:16 AM 62.4 °F - 58.8 °F 88% 30.02 in 10.0 mi SSW 4.6 mph - N/A   Clear
3:35 AM 65.5 °F - 58.3 °F 77% 30.03 in 10.0 mi SSW 4.6 mph - N/A   Clear
3:55 AM 66.2 °F - 58.1 °F 75% 30.03 in 10.0 mi SSW 4.6 mph - N/A   Clear
4:16 AM 66.6 °F - 57.6 °F 73% 30.02 in 10.0 mi SSW 4.6 mph - N/A   Clear
4:35 AM 66.7 °F - 57.0 °F 71% 30.03 in 10.0 mi SSW 5.8 mph - N/A   Clear
4:56 AM 66.6 °F - 56.3 °F 69% 30.03 in 10.0 mi SSW 4.6 mph - N/A   Clear
5:16 AM 66.9 °F - 55.9 °F 68% 30.03 in 10.0 mi SSW 6.9 mph - N/A   Clear
5:35 AM 67.1 °F - 55.4 °F 66% 30.03 in 10.0 mi SSW 5.8 mph - N/A   Clear
5:56 AM 67.1 °F - 55.0 °F 65% 30.03 in 10.0 mi SSW 5.8 mph - N/A   Clear
6:15 AM 66.4 °F - 55.4 °F 68% 30.03 in 10.0 mi SSW 4.6 mph - N/A   Clear
6:35 AM 67.1 °F - 55.6 °F 66% 30.03 in 10.0 mi SSW 6.9 mph - N/A   Clear
6:56 AM 68.2 °F - 56.3 °F 66% 30.03 in 10.0 mi SSW 8.1 mph - N/A   Clear
7:15 AM 69.1 °F - 57.4 °F 66% 30.03 in 10.0 mi SSW 5.8 mph - N/A   Clear
7:35 AM 69.6 °F - 58.3 °F 67% 30.04 in 10.0 mi SSW 8.1 mph - N/A   Clear
7:56 AM 70.7 °F - 59.4 °F 67% 30.04 in 10.0 mi SSW 9.2 mph - N/A   Clear
8:15 AM 72.3 °F - 60.4 °F 66% 30.03 in 10.0 mi SSW 8.1 mph - N/A   Clear
8:36 AM 73.8 °F - 60.8 °F 64% 30.04 in 10.0 mi SSW 8.1 mph - N/A   Clear
8:55 AM 74.8 °F - 61.0 °F 62% 30.04 in 10.0 mi SSW 8.1 mph - N/A   Clear
9:16 AM 75.9 °F - 60.8 °F 59% 30.03 in 10.0 mi SSW 8.1 mph - N/A   Clear
9:36 AM 77.2 °F - 61.2 °F 58% 30.03 in 10.0 mi SW 6.9 mph - N/A   Clear
9:55 AM 78.8 °F - 61.3 °F 55% 30.03 in 10.0 mi SW 10.4 mph - N/A   Clear
10:16 AM 79.7 °F - 61.0 °F 53% 30.03 in 10.0 mi SW 10.4 mph - N/A   Clear
10:35 AM 81.5 °F 82.2 °F 61.2 °F 50% 30.03 in 10.0 mi SW 8.1 mph - N/A   Clear
10:55 AM 81.7 °F 82.2 °F 60.3 °F 48% 30.03 in 10.0 mi SW 11.5 mph 17.3 mph N/A   Clear
11:16 AM 82.8 °F 83.0 °F 59.9 °F 46% 30.02 in 10.0 mi SSW 13.8 mph 17.3 mph N/A   Clear
11:35 AM 83.5 °F 83.6 °F 59.9 °F 45% 30.03 in 10.0 mi SSW 11.5 mph - N/A   Clear
11:55 AM 84.0 °F 83.8 °F 59.5 °F 43% 30.03 in 10.0 mi SSW 13.8 mph 17.3 mph N/A   Clear
12:16 PM 84.6 °F 84.2 °F 59.2 °F 42% 30.03 in 10.0 mi West 13.8 mph 21.9 mph N/A   Clear
12:35 PM 84.9 °F 84.4 °F 58.5 °F 41% 30.03 in 10.0 mi SW 13.8 mph 17.3 mph N/A   Clear
12:55 PM 85.5 °F 84.8 °F 58.5 °F 40% 30.03 in 10.0 mi SSW 10.4 mph 18.4 mph N/A   Clear
1:16 PM 85.8 °F 85.0 °F 57.9 °F 39% 30.03 in 10.0 mi West 11.5 mph 16.1 mph N/A   Clear
1:35 PM 86.0 °F 84.9 °F 57.2 °F 37% 30.03 in 10.0 mi SW 8.1 mph 17.3 mph N/A   Clear
1:56 PM 86.2 °F 84.9 °F 56.7 °F 36% 30.02 in 10.0 mi SW 13.8 mph 19.6 mph N/A   Clear
2:15 PM 86.5 °F 85.3 °F 56.7 °F 36% 30.02 in 10.0 mi West 9.2 mph 17.3 mph N/A   Clear
2:36 PM 86.9 °F 84.9 °F 54.0 °F 32% 30.02 in 10.0 mi WSW 15.0 mph 18.4 mph N/A   Clear
2:55 PM 87.4 °F 85.7 °F 54.9 °F 33% 30.01 in 10.0 mi West 12.7 mph 17.3 mph N/A   Clear
3:15 PM 87.6 °F 86.1 °F 56.3 °F 34% 30.01 in 10.0 mi WSW 8.1 mph - N/A   Clear
3:36 PM 87.3 °F 85.5 °F 54.9 °F 33% 30.01 in 10.0 mi West 6.9 mph - N/A   Clear
3:55 PM 88.0 °F 86.1 °F 54.7 °F 32% 30.01 in 10.0 mi WSW 8.1 mph - N/A   Clear
4:16 PM 87.8 °F 85.9 °F 54.7 °F 32% 30.00 in 10.0 mi WSW 9.2 mph - N/A   Clear
4:35 PM 87.4 °F 85.7 °F 55.2 °F 33% 29.99 in 10.0 mi WSW 8.1 mph - N/A   Clear
4:56 PM 87.8 °F 86.1 °F 55.4 °F 33% 29.99 in 10.0 mi WSW 10.4 mph - N/A   Clear
5:15 PM 86.7 °F 84.9 °F 54.5 °F 33% 29.98 in 10.0 mi West 9.2 mph - N/A   Clear
5:36 PM 86.9 °F 85.3 °F 55.0 °F 34% 29.98 in 10.0 mi West 10.4 mph 16.1 mph N/A   Clear
5:55 PM 86.2 °F 84.7 °F 55.8 °F 35% 29.98 in 10.0 mi West 8.1 mph - N/A   Clear
6:16 PM 85.6 °F 84.1 °F 55.4 °F 35% 29.97 in 10.0 mi WSW 6.9 mph - N/A   Clear
6:35 PM 85.1 °F 83.6 °F 54.9 °F 35% 29.97 in 10.0 mi SW 8.1 mph - N/A   Clear
6:56 PM 84.4 °F 83.1 °F 54.9 °F 36% 29.97 in 10.0 mi West 5.8 mph - N/A   Clear
7:15 PM 84.0 °F 83.0 °F 55.9 °F 38% 29.97 in 10.0 mi West 6.9 mph - N/A   Clear
7:36 PM 80.8 °F 81.6 °F 61.0 °F 51% 29.98 in 10.0 mi NE 3.5 mph - N/A   Clear
7:55 PM 79.0 °F - 61.2 °F 54% 29.97 in 7.0 mi Calm Calm - N/A   Clear
8:15 PM 78.3 °F - 62.8 °F 59% 29.97 in 10.0 mi Calm Calm - N/A   Clear
8:36 PM 77.5 °F - 61.3 °F 57% 29.97 in 10.0 mi Calm Calm - N/A   Clear
8:55 PM 76.8 °F - 59.4 °F 55% 29.97 in 10.0 mi SW 4.6 mph - N/A   Clear
9:16 PM 75.7 °F - 56.1 °F 50% 29.98 in 10.0 mi Calm Calm - N/A   Clear
9:35 PM 71.1 °F - 57.6 °F 62% 29.98 in 10.0 mi Calm Calm - N/A   Clear
9:55 PM 71.6 °F - 57.9 °F 62% 29.98 in 10.0 mi Calm Calm - N/A   Clear
10:15 PM 69.8 °F - 57.2 °F 64% 29.99 in 10.0 mi SW 4.6 mph - N/A   Clear
10:35 PM 67.1 °F - 56.8 °F 70% 30.00 in 10.0 mi Calm Calm - N/A   Clear
10:56 PM 66.9 °F - 56.5 °F 69% 30.00 in 10.0 mi Calm Calm - N/A   Clear
11:15 PM 64.9 °F - 57.2 °F 76% 30.00 in 10.0 mi SSE 3.5 mph - N/A   Clear
11:35 PM 66.2 °F - 55.8 °F 69% 30.00 in 10.0 mi Calm Calm - N/A   Clear
11:56 PM 63.5 °F - 56.3 °F 77% 29.99 in 10.0 mi Calm Calm - N/A   Clear